Location: ??
(35.5619°N, 139.6409°E)
Time: 18:54:14
(UTC+00:00)

Daily predictions for brighter satellites

Satellite Brightness Start Highest point End
(mag) Time Altitude Azimuth Time Altitude Azimuth Time Altitude Azimuth
Cosmos 1633 Rocket 3.2 12:01:02 10° NNW 12:05:14 69° WNW 12:05:14 69° WNW
Cosmos 1328 Rocket 4.3 12:09:51 47° WSW 12:10:19 49° W 12:14:38 10° N
Cosmos 1470 Rocket 4.1 12:10:50 10° N 12:14:22 55° N 12:14:22 55° N
CARTOSAT-1 4.2 12:18:04 54° NNW 12:18:04 54° NNW 12:21:26 10° NNW
Cosmos 2278 Rocket 2.2 12:21:25 69° SW 12:22:02 79° WNW 12:27:43 10° NNE
SPOT 1/Viking Rocket 4.1 12:22:23 49° WSW 12:22:51 50° W 12:27:54 10° NNW
BREEZE-M DEB (TANK) 4.2 12:18:46 10° NW 12:22:18 35° WNW 12:22:18 35° WNW
CZ-4C R/B 3.2 12:29:00 10° NNW 12:36:32 64° ENE 12:37:54 57° E
Cosmos 1943 Rocket 4.5 12:43:46 12° NE 12:43:46 12° NE 12:44:15 10° NE
Meteor 1-10 Rocket 4.4 12:44:59 67° NW 12:44:59 67° NW 12:50:07 10° N
X-37B 4.2 12:42:43 10° NW 12:42:54 11° NW 12:42:54 11° NW
SJ 16-02 2.9 12:47:34 33° NNW 12:47:34 33° NNW 12:50:13 10° N
Resurs 01 Rocket 4.3 12:45:17 10° WSW 12:46:13 11° W 12:47:26 10° WNW
Iridium 4 Rocket 4.4 12:59:32 47° W 12:59:32 47° W 13:05:02 10° N
ATLAS 5 CENTAUR R/B 3.3 12:55:49 10° NW 13:01:00 40° WSW 13:01:00 40° WSW
Cosmos 1833 Rocket 3.5 13:06:48 10° NNW 13:10:58 46° NW 13:10:58 46° NW
Cosmos 2154 Rocket 4.3 13:10:53 10° N 13:16:12 64° NNW 13:16:12 64° NNW
Terra 3.9 13:31:09 23° WNW 13:31:09 23° WNW 13:33:25 10° NW
Cosmos 2082 Rocket 3.5 13:41:38 10° NNW 13:44:54 35° NW 13:44:54 35° NW
NOSS 3-4 (A) 4.1 13:47:48 10° NW 13:53:51 65° NW 13:53:51 65° NW
NOSS 3-4 (C) 4.1 13:47:54 10° NNW 13:53:57 65° NW 13:53:57 65° NW
ATLAS 2AS CENTAUR R/B 3.2 14:01:28 10° NNW 14:07:13 57° N 14:07:13 57° N
Cosmos 2369 Rocket 3.8 14:19:17 30° NNE 14:19:17 30° NNE 14:21:59 10° NNE
Cosmos 1943 Rocket 3.7 14:25:15 32° NNW 14:25:15 32° NNW 14:28:41 10° N
CZ-4C R/B 4.4 14:18:24 10° NW 14:23:05 26° W 14:23:05 26° W
SeaSat 1 4.5 14:34:24 10° NNE 14:36:16 24° NNE 14:36:16 24° NNE
CZ-2D R/B 4.5 15:04:08 10° NE 15:05:50 15° ENE 15:05:50 15° ENE
Resurs 1-4 Rocket 4.0 15:25:13 10° NE 15:27:54 23° ENE 15:27:54 23° ENE
Lacrosse 5 3.8 15:42:51 26° NE 15:42:51 26° NE 15:45:03 10° NE
USA 215 3.9 15:48:01 45° NW 15:48:01 45° NW 15:52:18 10° NW
SL-16 R/B 3.4 15:55:14 41° E 15:56:00 43° ENE 16:01:52 10° N
Cosmos 1727 Rocket 4.2 16:11:15 70° N 16:11:15 70° N 16:16:48 10° N
USA 281 3.2 16:24:41 71° WNW 16:24:41 71° WNW 16:30:36 10° NNW
Meteor 2-20 Rocket 4.5 16:25:50 75° N 16:25:50 75° N 16:31:28 10° N
Cosmos 1697 Rocket 4.1 16:29:35 27° ESE 16:29:58 27° ESE 16:34:35 10° NE
NPP 3.9 16:30:12 10° N 16:34:47 65° N 16:34:47 65° N
NOSS 2-1 (D) 4.5 16:34:56 10° NNW 16:40:30 84° ENE 16:42:51 46° SE
Cosmos 1980 Rocket 4.4 16:38:39 14° ESE 16:40:39 16° E 16:44:00 10° ENE
CZ-2D R/B 2.7 16:42:43 10° N 16:47:09 46° NW 16:47:09 46° NW
Cosmos 1626 4.1 16:52:13 25° ENE 16:52:13 25° ENE 16:54:40 10° NNE
Cosmos 2227 Rocket 3.8 16:47:56 10° N 16:52:57 32° ENE 16:57:55 10° ESE
Cosmos 1932 4.3 16:53:32 74° WSW 16:54:01 79° WNW 17:00:25 10° NNE
IDEFIX/ARIANE 42P 3.6 16:49:27 10° NNE 16:54:23 39° E 16:55:27 35° SE
Cosmos 2061 Rocket 4.5 16:49:35 10° N 16:55:48 58° E 16:58:44 32° SE
Cosmos 2297 Rocket 3.2 16:51:09 10° N 16:56:35 45° ENE 17:01:58 10° SE
BREEZE-M R/B 3.9 16:55:43 53° WNW 16:57:08 83° SW 17:07:13 10° SE
Cosmos 1975 Rocket 3.8 17:02:33 45° NNW 17:02:33 45° NNW 17:05:41 10° N
CZ-2C R/B 3.7 17:05:34 12° E 17:05:34 12° E 17:05:49 10° E
Tianhe-1 3.8 17:04:18 19° ENE 17:04:18 19° ENE 17:05:30 10° ENE
Cosmos 2251 Rocket 4.0 16:58:53 10° N 17:04:03 58° ENE 17:06:08 34° SE
Cosmos 1459 Rocket 3.8 16:58:00 10° N 17:04:14 75° W 17:04:55 68° SW
Helios 1B rocket 4.4 17:01:11 10° NNW 17:03:03 21° NW 17:03:03 21° NW
ADEOS II 1.9 16:59:40 10° N 17:04:56 78° WNW 17:04:58 78° W
Cosmos 2016 Rocket 4.0 17:00:42 10° N 17:06:58 76° E 17:09:12 42° SSE
Meteor 1-28 Rocket 4.2 17:08:38 44° NE 17:08:38 44° NE 17:11:43 10° N
IRS-1D 3.4 17:03:30 10° NNE 17:08:52 88° WNW 17:09:18 76° SSW
Resurs 1-4 Rocket 3.3 17:04:57 10° N 17:08:59 29° WNW 17:08:59 29° WNW
In-Cosmos 22 4.3 17:09:41 59° W 17:09:43 59° W 17:15:14 10° N
Cosmos 1315 Rocket 4.0 17:07:20 10° NNW 17:09:44 35° NNW 17:09:44 35° NNW
SL-14 R/B 4.5 17:14:00 34° ESE 17:14:19 35° E 17:17:54 10° NNE
Cosmos 2173 Rocket 4.0 17:08:33 10° NNW 17:14:35 59° W 17:15:11 57° WSW
Cosmos 304 Rocket 3.8 17:14:32 67° SE 17:14:51 69° ESE 17:19:37 10° NNE
Lacrosse 4 Rocket 2.3 17:17:51 41° SE 17:18:17 42° ESE 17:22:31 10° NE
Lacrosse 5 3.6 17:22:02 19° WNW 17:23:23 21° NW 17:27:15 10° NNE
Cosmos 1802 Rocket 4.1 17:26:19 10° NNW 17:32:17 54° W 17:33:33 46° SW
Cosmos 2219 3.2 17:27:53 10° NNW 17:33:38 83° ENE 17:39:21 10° SSE
Cosmos 1656 4.3 17:34:02 35° W 17:34:46 37° WNW 17:39:49 10° N
MSX 3.9 17:31:47 10° NNE 17:37:35 75° ESE 17:40:30 31° S
Cosmos 371 Rocket 4.2 17:39:12 33° WNW 17:39:26 33° WNW 17:43:50 10° N
Cosmos 2123 Rocket 4.3 17:38:08 41° WSW 17:39:32 48° W 17:45:30 10° N
SL-16 R/B 3.6 17:40:18 26° W 17:40:18 26° W 17:44:51 10° NW
Cosmos 332 Rocket 4.0 17:41:42 47° W 17:42:24 51° WNW 17:47:10 10° N
IRS-1C 4.0 17:37:53 10° NNE 17:43:15 89° E 17:45:32 36° SSW
Cosmos 1025 Rocket 3.4 17:43:34 44° WNW 17:43:34 44° WNW 17:47:41 10° N
ARIANE 5 R/B 2.6 17:39:39 10° NNE 17:44:49 72° ESE 17:47:22 30° S
ADEOS Rocket 3.4 17:42:11 21° S 17:47:15 67° W 17:54:54 10° NNW
ATLAS 2A CENTAUR R/B 4.0 17:45:35 10° SSE 17:47:23 12° SE 17:49:55 10° ESE
Cosmos 1674 4.4 17:50:17 20° NW 17:50:17 20° NW 17:52:22 10° NNW
COSMOS 2455 2.8 17:43:58 10° NW 17:49:51 57° WSW 17:55:41 10° S
Cosmos 614 Rocket 3.8 17:45:17 10° NNW 17:50:20 67° WSW 17:53:25 24° S
CZ-2D R/B 4.1 17:46:01 10° NNE 17:50:21 56° E 17:52:51 24° S
Cosmos 2360 4.3 17:53:26 36° SW 17:55:42 62° WNW 18:01:23 10° NNE
Timation 1 Rocket 4.4 17:53:42 10° NNW 17:59:42 80° ENE 18:05:40 10° SSE
Cosmos 1544 Rocket 4.0 17:57:37 10° NNW 18:01:45 41° W 18:02:29 38° WSW
GP-B 3.7 18:00:25 10° NNW 18:04:32 38° W 18:05:26 34° WSW
Cosmos 1953 3.8 18:02:39 10° NW 18:04:58 21° WNW 18:04:58 21° WNW
TSX-5 3.6 18:05:58 10° NNW 18:09:33 71° WSW 18:14:00 10° SSE
CZ-2C R/B 3.2 18:04:48 10° NNE 18:09:48 53° E 18:14:51 10° S
Cosmos 1624 Rocket 4.2 18:10:55 27° SW 18:13:41 58° WNW 18:18:57 10° N
Cosmos 1697 Rocket 3.5 18:11:20 25° WSW 18:13:42 35° WNW 18:18:50 10° N
Cosmos 1536 Rocket 4.2 18:13:23 30° WSW 18:14:38 36° W 18:18:44 10° N
Cosmos 1300 2.5 18:11:31 10° N 18:15:20 77° W 18:18:29 14° S
Cosmos 407 Rocket 3.4 18:10:54 10° NNW 18:16:15 77° WSW 18:21:34 10° S
CZ-4B R/B 3.9 18:16:53 10° N 18:21:35 44° WNW 18:24:30 22° SW
Cosmos 1980 Rocket 2.4 18:20:26 22° SW 18:24:03 58° WNW 18:29:41 10° NNE
Centaur D-1AR AC-39 3.8 18:20:42 19° SSW 18:24:12 31° SSE 18:42:04 10° ESE
USA 129 1.9 18:23:44 21° SSE 18:25:03 64° ENE 18:26:51 10° N
Meteor 2-10 Rocket 4.3 18:20:48 10° N 18:26:30 61° E 18:31:56 10° SSE
Cosmos 1626 4.1 18:26:45 14° WNW 18:26:45 14° WNW 18:28:45 10° NW
CZ-2C R/B 3.0 18:22:44 10° NNE 18:26:45 74° ESE 18:30:45 10° S
CZ-3B R/B 3.1 18:26:36 16° S 18:27:45 18° SSE 18:31:20 10° ESE
Cosmos 2228 3.1 18:26:52 10° N 18:31:09 78° E 18:35:26 10° S
Cosmos 1452 Rocket 3.9 18:27:08 10° S 18:32:19 64° ESE 18:37:33 10° NNE
IDEFIX/ARIANE 42P 3.9 18:29:38 10° NNW 18:33:39 23° WNW 18:36:16 16° WSW
Cosmos 1455 4.4 18:31:03 10° NNE 18:34:23 28° ENE 18:37:42 10° SE
Cosmos 2056 Rocket 4.2 18:31:28 20° WSW 18:34:27 36° WNW 18:39:10 10° N
Spot 4 Rocket 4.1 18:30:59 10° N 18:36:02 59° WNW 18:40:46 12° SSW
Cosmos 292 Rocket 4.0 18:31:18 10° S 18:36:07 75° ESE 18:40:58 10° NNE
Cosmos 1464 Rocket 4.2 18:30:05 10° N 18:36:15 76° E 18:42:27 10° S
Cosmos 2227 Rocket 2.9 18:31:59 10° NW 18:36:52 31° WSW 18:41:44 10° SSW
Cosmos 2278 4.0 18:32:42 17° SW 18:36:54 52° WNW 18:42:29 10° N
OAO 3 Rocket 4.3 18:35:29 18° WSW 18:37:41 25° SSW 18:41:40 10° SSE
Tianhe-1 0.9 18:36:13 10° WNW 18:39:19 76° SSW 18:42:25 10° ESE
Cosmos 2346 Rocket 4.5 18:34:03 10° S 18:40:08 87° E 18:46:14 10° N
Cosmos 2297 Rocket 3.4 18:36:04 10° NW 18:40:14 21° W 18:43:45 12° SW
CZ-2C R/B 0.8 18:39:51 18° W 18:41:59 51° SSW 18:45:10 10° ESE
Cosmos 1954 Rocket 4.1 18:36:55 10° NNW 18:42:13 82° ENE 18:47:30 10° SSE
PAYLOAD A 3.8 18:37:48 10° N 18:42:30 64° WNW 18:47:07 10° SSW
OAO 2 Rocket 3.6 18:40:01 16° WSW 18:44:12 65° SSE 18:49:28 10° E
ISS -0.4 18:46:18 10° N 18:47:07 11° NNE 18:47:57 10° NE
Cosmos 2082 3.9 18:43:54 10° NNW 18:49:22 50° WSW 18:54:52 10° S
SL-08 R/B 4.0 18:46:15 10° SSW 18:50:29 32° W 18:54:42 10° NW
SL-16 R/B 2.7 18:47:27 10° S 18:53:02 64° ESE 18:58:39 10° NNE
NOSS 3-2 (A) 3.8 18:49:26 10° SSW 18:54:42 59° ESE 19:00:36 10° NE
Cosmos 1340 4.1 18:52:53 13° WSW 18:55:03 21° WNW 18:57:56 10° NNW
Lacrosse 4 Rocket 3.4 18:54:10 10° W 18:57:08 18° NW 19:00:09 10° NNW
FENGYUN 3A 3.7 18:57:29 10° N 19:02:52 78° WNW 19:08:13 10° SSW
USA 32 4.0 18:58:52 10° N 19:04:09 83° W 19:09:24 10° S
USA 238 DEB 4.3 18:59:15 10° SSW 19:05:33 56° ESE 19:12:06 10° NE
USA 238 4.3 18:59:22 10° SSW 19:05:39 56° ESE 19:12:11 10° NE
BREEZE-M R/B 2.9 19:06:33 10° SW 19:10:04 62° SE 19:14:33 10° ENE
Atlas Centaur 2 3.8 19:06:02 10° SSW 19:10:55 22° SSE 19:15:02 10° ESE
ALOS 2.4 19:08:58 10° N 19:13:34 60° WNW 19:18:08 10° SSW
Okean 1-7 Rocket 3.6 19:09:50 10° S 19:14:20 77° W 19:18:55 10° N
PSLV R/B 3.8 19:11:44 10° N 19:15:45 47° WNW 19:19:47 10° SSW
